GFSGL_850_temp_273.txt.gz
Temp
20 21 20 19 20 19 19 19 18 18 18 18 17 17 17 17 16 17 16 17 17 17 17 16 16 16 16 16 16 16 16 16 16 17 17 17 18 18 18 17 17 18 20
20 20 19 19 19 20 19 19 18 18 17 17 17 17 17 17 16 16 16 16 17 17 17 16 16 16 16 16 16 16 17 17 16 16 17 18 18 17 18 18 18 18 19
21 20 20 20 19 19 19 18 18 18 18 17 17 17 16 16 16 16 16 16 16 16 16 15 16 15 16 16 17 17 17 17 17 16 17 17 17 17 17 18 18 18 18
20 20 20 19 19 19 19 19 19 18 18 17 17 16 16 16 15 15 15 15 15 16 16 15 15 15 16 16 16 16 16 16 17 16 17 17 17 17 16 17 17 18 17
21 20 19 19 19 19 19 18 18 17 17 16 16 16 16 16 14 14 14 14 15 15 15 15 14 15 15 15 15 16 16 16 16 16 16 17 17 17 17 17 17 17 18
20 20 19 19 19 18 18 17 17 17 17 16 16 15 15 14 14 14 14 13 13 13 13 14 14 14 14 14 15 15 15 16 16 16 16 16 17 17 17 17 17 17 18
20 19 19 18 18 18 18 18 17 16 16 15 15 15 14 14 14 14 13 13 13 13 13 13 13 13 13 14 15 15 15 15 15 15 15 15 16 16 16 16 17 17 17
19 19 18 18 17 16 17 17 16 16 15 15 14 13 13 13 13 13 13 13 13 13 13 12 12 13 13 13 13 14 14 15 15 15 14 14 15 16 16 16 16 17 17
18 18 19 19 18 16 16 16 15 15 15 13 13 12 12 12 12 12 13 13 13 13 13 13 12 11 11 11 12 13 13 14 14 14 15 15 15 15 15 15 16 16 16
19 18 19 19 19 16 16 15 15 14 13 12 12 12 11 12 12 12 12 12 13 13 13 13 13 12 12 12 12 12 12 13 13 14 14 15 16 16 16 16 16 16 16
18 18 18 16 17 17 15 14 13 12 12 12 12 11 11 11 11 11 11 12 11 11 10 10 10 10 11 12 12 12 12 12 12 12 13 14 14 16 16 16 16 16 16
18 17 17 18 16 15 13 12 12 12 13 13 12 11 11 11 12 11 11 10 10 9 8 8 8 7 8 9 11 11 11 12 12 13 13 13 13 14 15 15 16 16 16
17 18 17 15 14 13 12 12 13 13 13 12 12 11 11 11 10 10 10 10 9 9 8 7 7 7 7 8 9 10 10 11 11 11 11 12 12 13 13 14 15 16 16
18 17 16 14 14 13 13 13 12 12 11 11 11 11 10 10 10 10 9 9 9 8 7 6 6 7 8 8 8 10 9 9 9 9 10 11 11 12 13 14 14 15 14
16 15 14 13 13 12 12 12 12 11 11 11 11 11 10 10 10 9 8 8 8 8 8 8 7 6 6 6 7 8 8 9 9 9 9 9 10 11 12 12 13 13 14
14 14 14 13 13 12 12 12 11 11 11 11 10 10 10 10 10 9 9 8 9 8 8 7 6 4 3 3 3 4 6 7 7 7 8 7 8 9 9 10 11 12 13
14 13 13 13 13 12 12 12 12 11 11 11 10 10 10 10 10 10 9 8 9 9 8 7 6 5 2 3 3 2 3 4 4 4 5 6 7 7 8 9 10 10 11
13 13 13 12 12 12 12 12 12 12 11 11 11 11 11 11 10 10 9 9 9 9 9 7 6 5 3 2 2 2 2 2 2 2 3 4 6 6 7 7 9 9 9
13 13 12 12 12 12 12 12 12 12 11 11 11 11 11 11 11 10 10 9 9 9 9 8 7 6 4 2 2 2 2 2 2 2 2 2 3 4 5 6 7 8 9
13 13 12 12 12 12 12 12 12 12 12 12 12 11 11 11 11 11 10 10 10 10 9 8 7 6 5 3 2 2 2 2 2 1 1 2 2 3 3 4 5 5 6
13 13 13 13 12 12 12 12 12 12 12 12 12 11 11 11 11 11 11 10 10 10 9 9 8 7 6 5 4 3 2 2 2 2 2 2 2 3 4 4 4 5 5
13 13 13 13 13 13 13 12 12 12 12 12 12 12 12 12 11 11 11 10 10 10 9 8 8 7 6 5 5 4 3 3 2 2 2 3 3 4 4 4 5 5 4
12 11 12 13 13 13 13 13 13 13 12 12 12 12 12 12 11 11 11 10 10 10 9 8 8 7 7 6 6 5 4 3 3 2 3 3 4 4 4 5 5 5 5
12 13 13 13 14 14 13 13 13 13 13 12 12 12 12 12 12 11 11 10 10 9 8 8 7 7 6 6 6 5 5 5 4 3 3 4 4 5 4 4 4 4 5
12 13 13 14 14 14 13 13 13 13 13 13 12 12 12 12 11 10 10 10 9 9 8 7 7 6 6 6 6 5 5 5 5 4 4 4 5 5 5 5 4 4 4
12 12 12 13 13 13 13 13 13 13 13 13 12 12 12 11 10 10 10 9 9 8 8 7 7 6 6 6 6 6 6 6 5 5 5 4 5 5 5 5 5 4 3

GFSGL_850_temp_276.txt.gz
Temp
19 19 19 20 20 20 19 19 18 18 18 17 17 17 16 16 16 16 15 16 16 17 16 16 16 16 16 16 16 16 16 16 16 17 17 17 17 16 17 17 17 17 16
19 20 20 20 20 19 19 18 18 18 17 17 17 17 17 16 16 15 15 15 15 16 16 16 15 15 15 15 16 16 16 16 16 16 17 17 17 17 17 16 16 16 16
20 20 20 19 19 19 18 18 18 18 18 17 17 16 16 16 16 15 14 14 14 15 15 15 15 15 15 15 15 16 16 16 16 16 16 16 16 16 17 17 17 16 16
20 20 19 19 19 18 18 18 18 18 18 17 17 16 16 16 15 14 14 14 14 14 14 14 14 14 15 15 15 15 15 16 16 16 16 16 16 17 17 17 17 17 17
20 20 19 19 18 18 18 18 18 18 17 17 16 16 15 15 14 14 14 13 13 13 13 13 13 14 14 14 14 15 15 15 15 15 15 15 16 16 16 16 16 16 17
19 19 19 19 19 18 18 18 18 17 16 16 15 15 14 14 13 13 13 12 12 12 13 13 13 13 13 13 14 14 14 14 15 15 15 15 15 15 16 16 15 16 16
19 19 19 19 18 19 19 18 17 16 16 15 15 14 13 13 12 12 12 12 12 12 12 12 12 12 12 13 13 13 14 14 13 13 13 14 14 14 14 15 16 15 16
19 20 19 18 19 19 19 18 16 16 16 14 13 12 12 12 12 12 13 13 13 13 13 12 12 11 10 10 12 13 13 14 14 13 13 14 14 14 14 14 15 15 16
18 19 18 18 19 19 18 16 17 16 14 13 12 12 12 12 12 13 14 14 14 13 13 12 12 12 12 10 11 11 13 14 14 13 13 13 14 14 15 14 15 15 15
19 18 18 18 18 17 16 18 16 13 13 12 12 12 12 12 12 13 13 13 13 12 11 11 11 11 10 9 9 10 11 11 12 14 14 14 14 15 15 15 15 15 15
18 18 19 18 17 17 17 15 13 12 12 12 12 12 12 11 11 12 12 12 12 11 11 10 10 9 9 9 7 7 8 9 10 11 12 13 13 13 13 14 14 14 14
18 19 18 18 17 16 15 14 13 13 13 12 12 11 11 11 11 11 11 11 10 10 10 9 9 9 9 8 8 8 8 9 10 10 11 11 11 11 12 12 13 13 14
18 18 17 17 15 15 14 13 13 13 12 11 11 11 11 11 11 11 10 10 10 9 9 9 9 8 9 9 8 8 8 9 9 9 10 10 10 10 11 12 13 13 14
18 17 16 15 14 13 12 12 12 11 11 11 11 11 11 10 10 10 10 9 9 9 9 9 9 8 7 7 8 7 6 6 6 7 8 9 9 9 10 11 11 13 14
17 16 14 13 13 12 12 12 12 11 11 11 11 11 11 10 10 10 10 9 9 9 9 9 9 8 8 7 7 4 4 4 4 4 5 6 8 9 9 9 10 11 11
15 14 13 13 13 12 12 12 11 11 11 11 11 11 11 11 10 10 10 10 9 9 9 8 8 8 7 6 6 5 4 3 3 3 4 3 5 6 7 8 8 9 10
14 14 13 13 12 12 12 12 11 11 11 11 11 11 11 11 11 10 10 10 9 9 8 8 8 7 6 6 5 4 3 3 3 2 2 2 2 3 4 6 7 8 9
13 13 13 13 12 12 12 12 12 11 11 11 11 11 11 11 11 11 10 10 10 9 9 9 8 8 7 6 5 5 3 3 3 3 3 2 2 2 2 3 5 6 6
13 13 13 12 12 12 12 12 12 11 11 11 11 11 11 11 11 11 10 11 10 10 10 9 9 8 7 6 6 5 4 4 3 3 3 3 3 3 3 3 4 4 4
13 13 12 12 12 12 12 12 12 12 12 12 12 11 11 11 11 11 11 11 11 10 10 10 9 8 8 7 6 5 5 5 4 4 3 3 3 3 3 3 4 4 5
13 13 13 13 13 12 12 12 12 12 12 12 12 12 12 12 11 11 11 11 10 10 10 10 9 8 7 7 6 6 5 5 5 5 4 4 4 4 4 4 4 4 4
12 12 11 11 12 12 12 12 12 12 12 12 12 12 12 12 12 11 11 11 11 10 10 9 9 8 7 6 6 6 5 5 5 4 5 4 4 4 4 4 4 4 4
12 12 11 11 12 12 13 13 13 13 13 12 13 12 12 12 11 11 11 11 11 10 9 9 8 7 6 6 6 6 5 5 5 5 5 5 4 4 4 4 4 4 4
12 11 11 12 13 14 13 13 13 13 13 13 13 12 12 12 11 11 11 10 10 9 9 9 7 6 6 6 6 6 6 5 5 5 5 5 5 4 5 4 4 4 4
11 11 12 13 13 13 13 13 13 13 13 13 12 12 11 11 11 11 10 9 9 9 9 8 7 7 6 6 6 6 6 6 6 6 6 6 6 5 5 5 5 5 4
11 11 12 12 13 13 13 13 13 13 13 12 12 12 12 12 12 10 9 9 9 9 8 7 7 7 7 6 6 6 7 6 6 6 6 6 6 6 5 5 5 5 5

GFSGL_850_temp_279.txt.gz
Temp
20 19 19 19 19 19 18 18 18 17 17 17 17 16 16 16 15 15 15 15 15 15 16 15 15 15 15 16 15 16 16 15 15 16 16 16 16 16 16 16 16 16 17
20 19 19 19 19 19 18 18 17 17 17 17 17 17 16 16 16 15 14 14 14 14 15 15 15 15 15 15 15 15 15 15 15 16 16 16 16 16 16 16 16 16 16
19 19 19 19 19 18 18 18 17 17 17 17 17 16 16 16 15 14 13 13 14 14 13 13 13 13 14 14 14 15 15 15 15 15 15 16 16 16 16 16 16 16 16
19 19 19 19 19 18 18 18 17 18 17 17 16 16 15 15 14 14 14 14 13 13 12 12 12 13 13 13 14 14 14 15 15 15 15 15 15 16 15 15 16 16 16
19 19 19 19 18 18 18 18 18 17 17 17 16 15 15 14 14 14 14 13 13 13 13 13 12 12 12 12 12 13 13 14 14 14 14 14 14 15 15 15 15 16 16
18 18 18 18 18 18 18 18 18 18 16 15 15 15 15 14 13 13 13 13 13 13 13 13 13 13 13 13 13 12 12 12 12 13 13 13 14 14 13 14 14 14 15
17 18 18 18 18 18 18 17 17 16 16 15 14 14 14 14 13 13 13 13 13 13 13 12 12 12 13 13 14 13 13 12 12 12 12 13 13 13 13 13 14 14 14
17 18 18 17 18 18 18 17 16 16 15 14 13 13 13 13 13 13 13 13 12 12 11 11 11 11 10 11 11 12 13 13 13 13 12 13 13 13 13 13 13 13 14
18 17 18 17 17 18 18 16 16 15 13 13 13 12 12 13 13 12 12 12 11 11 11 10 10 10 10 9 9 9 10 11 11 11 11 12 12 13 13 13 14 13 14
18 18 17 16 17 17 17 16 15 13 13 12 12 12 12 11 11 11 11 11 11 11 10 10 10 10 9 9 9 8 9 9 8 9 10 11 11 12 12 12 11 12 12
19 18 17 17 17 16 16 14 13 13 12 12 12 11 11 11 11 11 11 10 10 10 10 10 10 10 10 10 9 9 8 7 8 8 9 10 10 11 11 12 11 11 12
18 17 17 16 16 16 14 13 12 13 12 12 11 11 11 11 10 10 10 10 10 10 10 10 9 9 10 10 10 9 9 8 8 8 8 9 10 10 10 10 11 11 12
17 17 17 17 16 14 13 13 13 12 12 11 11 11 10 10 10 10 10 10 10 10 9 9 9 9 9 9 8 8 7 7 5 5 6 7 8 8 9 10 10 10 11
16 16 16 16 14 13 13 12 12 12 12 11 11 11 10 10 10 10 10 10 10 9 9 9 9 8 8 7 7 7 6 5 4 3 4 5 6 7 8 8 9 10 10
17 17 16 15 14 13 12 12 11 11 11 11 11 11 10 10 10 10 10 10 10 10 9 9 8 8 7 7 7 6 6 5 5 4 4 4 4 4 6 6 7 8 8
17 16 15 14 13 12 12 12 11 11 11 11 11 11 11 11 11 10 10 10 10 10 10 9 9 8 7 7 6 6 5 5 4 4 4 3 3 3 3 5 5 6 6
16 15 14 13 13 12 12 11 11 11 11 11 11 11 11 11 11 11 10 10 10 10 10 10 9 9 8 8 7 6 5 5 5 4 3 3 3 3 3 4 3 3 5
14 14 13 12 12 12 12 11 11 11 11 11 11 11 11 11 11 11 11 10 11 11 10 10 10 9 9 8 7 6 6 5 5 5 4 4 3 3 3 3 4 3 3
13 13 12 12 12 12 11 12 12 12 11 11 11 11 11 11 11 11 11 11 10 10 10 10 10 10 9 8 7 6 6 5 5 5 4 4 4 3 4 4 4 4 4
13 12 12 12 12 12 12 12 11 11 12 12 12 11 12 11 11 11 11 11 11 11 10 10 10 9 9 8 7 6 6 5 5 5 5 5 5 4 4 4 4 3 4
13 12 12 12 12 11 10 11 12 12 12 12 12 12 12 12 12 11 11 11 11 10 10 10 9 9 8 7 6 6 5 5 5 5 5 5 5 5 4 4 4 4 3
12 12 12 12 12 11 11 11 12 12 12 12 12 12 12 12 12 11 11 11 10 10 9 9 9 9 7 6 6 6 5 5 5 5 5 6 5 5 5 4 4 4 4
12 12 12 11 11 11 12 12 13 12 12 12 12 12 12 12 11 11 11 10 10 9 9 9 9 8 7 6 6 5 5 5 5 5 5 6 6 5 5 5 5 4 4
11 11 11 11 11 13 13 14 13 12 12 12 12 12 12 12 11 11 11 10 9 9 9 8 7 7 7 6 6 6 5 5 5 6 5 6 6 6 5 5 4 5 5
11 11 11 11 12 13 13 13 13 12 12 12 12 12 11 11 11 11 10 9 9 9 8 7 7 7 6 6 6 6 6 6 6 6 6 6 6 6 6 5 5 5 4
11 11 11 12 12 12 12 12 12 12 12 12 12 11 11 11 11 10 9 9 9 8 7 7 7 6 6 6 6 6 6 6 6 6 6 6 6 6 6 5 5 5 5

GFSGL_850_temp_282.txt.gz
Temp
20 19 19 18 19 19 19 18 18 17 17 16 16 16 16 16 15 15 14 15 14 14 14 14 14 14 14 14 15 15 15 15 15 16 16 16 16 16 16 16 16 16 16
20 19 19 18 18 19 18 18 18 17 17 17 17 16 16 16 15 15 14 14 14 14 14 13 14 14 14 14 14 14 14 14 14 15 16 16 16 16 16 16 16 16 16
19 19 19 18 19 18 18 18 17 17 17 17 16 16 15 15 15 14 14 13 13 13 12 13 13 13 14 14 14 14 14 14 14 14 14 15 15 15 16 16 16 16 16
19 19 18 18 19 18 18 18 17 17 17 17 16 16 15 14 14 14 14 13 13 12 12 12 13 13 13 13 13 13 13 13 14 14 14 14 14 14 14 14 15 16 16
18 18 18 18 18 18 18 17 17 17 16 16 15 15 15 15 14 14 13 13 13 13 13 13 13 13 13 12 12 13 13 12 13 13 13 13 13 13 12 13 13 14 15
17 16 18 18 18 18 17 18 17 17 16 16 15 15 14 14 13 13 14 14 14 14 14 13 13 13 13 13 12 12 12 13 13 12 12 12 13 13 13 12 13 13 14
17 17 16 17 18 18 17 17 17 16 16 16 15 14 13 13 14 14 14 13 13 13 12 12 12 12 12 13 13 12 12 11 10 11 11 12 12 12 12 12 13 13 13
18 17 17 17 17 17 16 16 16 16 15 15 14 13 13 14 13 13 13 12 12 11 11 11 11 11 11 11 11 12 12 12 11 10 9 9 10 11 11 12 12 12 13
16 17 18 17 17 17 16 16 16 15 15 13 13 13 13 13 12 12 11 11 11 11 11 11 10 10 10 10 10 11 11 10 10 10 9 9 9 10 10 10 10 10 11
18 18 17 17 17 16 17 16 16 15 14 13 13 12 12 12 12 11 11 10 10 10 10 9 9 9 9 9 10 10 9 8 8 8 9 10 10 10 10 10 10 9 10
17 17 16 17 16 16 16 16 15 13 13 12 12 12 12 11 11 10 10 10 9 9 9 9 8 8 8 8 8 8 8 9 8 7 7 7 8 8 9 10 10 9 9
17 18 18 16 16 16 15 15 13 13 12 12 11 11 11 11 10 10 10 9 9 9 9 9 8 8 8 8 8 7 7 7 7 6 6 6 6 7 8 8 9 10 9
18 17 16 15 15 15 14 14 13 12 12 11 11 11 11 10 10 10 10 10 10 10 10 9 9 9 9 8 8 7 7 7 6 5 4 4 5 5 6 7 8 8 8
16 16 16 15 15 15 13 13 13 12 11 11 11 11 10 10 10 10 10 10 10 10 10 10 9 9 9 8 8 7 6 6 5 5 5 4 4 5 5 5 5 7 7
16 16 16 16 15 14 12 12 12 12 11 11 10 10 10 10 10 10 10 10 10 10 10 10 10 10 9 9 8 7 6 6 5 5 5 5 5 5 5 5 4 5 5
16 16 16 14 13 12 12 12 11 11 10 10 11 11 11 11 11 11 11 10 10 10 10 10 10 10 10 9 9 8 7 6 6 5 5 5 5 5 5 5 5 4 4
16 15 14 13 13 12 12 11 11 11 11 11 11 11 11 11 11 11 11 11 11 10 10 10 10 10 10 9 9 8 7 7 6 5 5 5 5 5 5 5 5 4 5
14 14 13 13 12 12 12 11 11 11 11 11 11 11 11 11 11 11 11 11 11 11 11 10 10 10 10 9 9 8 7 7 6 6 5 5 5 5 5 5 5 5 4
14 13 13 12 12 12 11 11 11 12 12 11 11 11 11 11 11 11 11 11 11 11 10 10 10 10 9 9 9 8 7 6 6 6 6 5 5 5 6 5 5 5 4
13 12 12 12 12 12 11 11 11 11 11 11 12 12 12 12 12 12 11 11 11 10 10 10 9 9 9 8 8 7 7 6 6 6 5 5 5 6 5 5 5 5 4
13 12 12 12 12 12 12 12 11 12 12 12 12 12 12 12 12 12 11 11 11 10 10 9 8 8 8 8 7 7 6 6 6 5 5 6 6 6 6 6 5 5 4
13 12 13 12 12 12 11 12 12 12 12 12 12 12 12 12 12 12 11 11 10 10 9 8 8 8 7 7 6 6 6 6 5 5 5 6 6 6 6 6 5 5 4
12 12 12 12 12 11 12 13 13 13 12 12 12 12 12 12 12 11 11 10 10 9 8 8 8 7 7 7 6 6 5 5 5 5 5 6 6 6 6 6 5 5 5
12 12 12 12 12 12 13 13 13 13 13 12 12 12 12 12 11 11 10 10 9 9 8 8 7 7 6 6 6 6 5 5 5 5 5 5 6 6 6 6 5 5 4
11 11 11 11 12 12 12 12 13 13 12 12 12 12 12 11 11 10 10 10 9 9 8 7 7 6 6 6 5 5 5 5 5 5 5 5 6 6 6 6 5 5 5
11 11 11 11 12 12 12 12 12 12 12 12 12 12 11 11 10 10 10 9 9 8 7 7 6 6 6 5 5 5 5 5 5 5 5 6 6 7 7 6 6 5 5

GFSGL_850_temp_285.txt.gz
Temp
21 20 20 19 19 19 18 18 18 18 17 17 16 16 16 16 15 15 14 14 14 14 14 14 14 14 14 14 14 14 14 14 14 14 15 14 16 15 16 16 16 16 16
21 21 20 20 19 19 19 18 18 18 17 17 17 17 16 15 15 15 14 14 13 13 13 13 13 13 13 13 14 14 14 14 14 14 15 15 14 15 15 16 16 16 16
19 20 20 19 19 18 18 18 18 17 17 17 16 16 15 15 15 14 14 14 13 13 13 13 13 13 13 13 13 13 13 13 13 12 12 13 13 13 14 14 15 16 16
20 19 19 19 19 19 18 18 17 17 18 17 16 15 15 14 14 14 14 13 13 14 14 13 13 13 13 13 13 13 13 13 13 12 11 12 12 12 13 13 13 14 14
22 20 17 17 18 18 18 18 18 18 17 16 16 15 15 14 14 14 14 14 14 13 13 13 12 12 12 12 12 12 12 12 12 11 10 10 11 10 11 11 12 12 13
21 17 17 17 17 18 18 18 18 17 16 16 15 15 15 14 14 14 14 14 13 13 13 12 12 12 12 12 12 11 11 10 10 10 9 8 9 9 9 9 10 11 12
19 17 17 18 17 17 17 17 17 16 15 16 15 14 14 14 14 13 13 13 12 12 12 12 12 12 12 12 12 12 11 11 10 9 9 9 8 8 9 10 10 10 10
19 17 18 17 16 17 17 16 16 15 15 15 14 13 14 13 13 13 12 12 12 12 11 11 11 11 11 11 12 12 12 11 11 10 10 10 9 9 9 9 9 9 10
17 16 18 17 16 17 17 16 15 15 15 14 13 13 13 13 12 12 12 12 11 11 10 10 10 10 10 10 10 11 10 11 11 11 9 9 9 8 8 8 9 10 10
18 18 18 17 16 16 17 16 15 15 14 13 13 12 12 12 12 12 12 11 11 10 10 10 9 9 9 9 8 8 7 8 8 8 6 8 9 8 8 8 8 7 8
18 18 17 16 15 16 16 15 15 14 13 13 12 12 12 11 11 11 10 10 10 9 9 9 9 9 9 8 8 8 8 8 7 6 6 6 5 5 5 7 7 6 6
17 17 16 16 17 16 15 15 14 13 12 12 12 11 11 10 10 10 10 10 10 10 9 9 9 9 9 9 9 9 8 8 7 6 6 6 5 5 6 7 6 5 6
16 16 17 16 16 15 15 14 13 12 12 12 11 11 11 11 10 10 10 10 10 10 10 10 10 10 10 10 9 9 8 8 7 6 6 6 5 5 4 5 6 6 5
16 16 16 15 15 15 13 13 13 12 12 11 11 11 11 10 10 10 10 10 10 10 10 10 10 10 10 10 10 9 9 8 7 6 5 5 5 5 5 4 5 5 5
15 15 15 15 15 14 13 13 12 12 12 11 11 11 10 10 10 10 10 10 10 10 11 11 11 10 10 10 10 10 9 9 7 6 5 5 5 5 5 5 6 6 4
15 15 16 15 14 13 12 12 12 12 11 11 11 11 11 11 11 11 11 11 11 11 11 11 11 10 10 9 9 9 9 7 6 5 5 5 5 5 5 4 4 3 4
16 16 15 14 13 13 12 12 12 11 11 11 11 11 11 11 11 11 11 11 11 11 11 10 10 10 10 9 9 7 7 7 7 7 5 5 5 5 5 5 5 4 4
15 15 14 13 13 12 12 11 11 11 11 11 11 11 11 11 11 11 11 11 11 11 10 10 9 9 9 8 7 7 6 6 5 5 5 5 5 5 4 5 5 5 4
14 13 13 13 12 12 11 11 11 11 11 11 11 11 11 11 12 11 12 12 11 11 11 10 9 8 7 7 6 5 5 5 5 5 4 5 4 4 4 5 4 4 4
13 13 13 13 12 12 12 11 11 11 11 11 11 11 12 12 12 12 12 12 11 11 10 10 9 8 7 7 5 5 4 4 4 4 4 4 4 4 6 4 4 4 5
13 13 12 12 12 12 12 12 11 11 11 11 12 12 12 12 12 12 12 11 11 10 10 9 9 8 7 6 6 4 4 4 4 4 3 4 5 6 5 4 4 4 4
13 12 12 12 12 12 11 11 11 12 12 12 12 12 12 12 12 12 11 11 11 10 9 9 8 8 7 6 6 6 4 4 4 4 5 5 6 6 5 4 5 5 4
12 12 12 12 12 12 11 11 12 13 13 13 13 12 12 12 12 11 11 11 10 10 9 8 8 7 7 6 6 5 5 5 4 4 5 5 5 6 5 6 7 6 4
12 12 12 12 12 12 12 13 13 13 13 13 12 12 12 12 11 11 10 10 10 9 9 8 7 7 6 6 5 5 5 5 5 4 4 5 5 6 6 7 7 6 4
12 12 12 11 12 12 12 13 13 13 12 12 12 12 12 11 11 10 10 10 9 9 8 7 7 6 6 5 5 5 5 5 5 5 5 5 5 6 6 7 6 6 4
11 11 11 11 12 12 12 12 12 12 12 11 12 12 11 11 10 10 10 10 9 8 8 7 6 6 5 5 5 5 5 5 5 5 5 5 6 6 6 7 7 6 4

GFSGL_850_temp_288.txt.gz
Temp
21 20 19 19 18 19 19 19 18 17 16 16 16 15 15 15 15 14 14 14 13 12 12 12 12 12 13 13 13 14 14 14 14 14 14 14 15 15 15 15 16 16 16
21 21 19 19 18 18 18 18 17 17 16 17 16 16 17 16 15 14 14 13 12 12 12 12 12 12 14 11 12 12 12 12 13 13 15 15 15 14 15 14 16 16 16
21 20 19 19 20 18 17 17 17 16 16 17 17 17 16 16 14 15 14 14 14 13 13 11 12 13 13 13 12 11 12 11 12 13 14 15 15 15 14 15 15 15 16
22 21 20 20 19 19 17 16 16 17 18 17 17 16 16 16 15 14 14 14 14 14 14 12 13 13 13 13 10 10 10 11 11 13 14 14 14 14 13 14 14 15 15
22 20 20 19 18 19 18 17 18 18 17 17 16 15 15 15 15 15 15 15 14 14 13 12 13 13 13 13 13 12 12 9 10 10 11 11 11 10 10 10 12 13 14
23 21 19 18 16 19 16 18 17 18 17 16 16 16 16 15 15 15 14 14 13 13 12 10 9 12 12 12 12 12 12 12 11 9 9 9 9 8 9 8 9 9 11
20 21 18 17 17 16 17 17 17 17 16 16 15 15 15 14 14 14 13 10 10 11 11 10 9 11 12 12 11 10 8 10 11 9 7 8 7 7 7 8 8 8 9
22 20 18 17 17 17 17 17 17 16 15 15 15 14 14 14 14 13 13 12 12 12 12 11 11 11 11 12 10 8 8 8 11 10 9 8 8 9 9 8 8 8 9
19 19 16 17 17 17 17 17 16 15 14 14 14 14 14 13 13 13 11 10 10 11 11 11 11 10 10 10 10 8 8 9 8 8 8 8 7 7 8 7 8 8 9
20 18 17 16 17 17 17 17 16 15 15 14 14 14 13 13 12 12 11 11 10 10 9 9 10 10 10 10 9 8 8 8 7 8 9 8 8 8 7 6 7 8 7
20 18 16 15 16 17 17 16 15 14 14 14 14 13 13 12 11 11 11 10 10 11 11 10 10 10 10 10 10 10 9 9 8 9 10 10 9 9 8 7 6 6 6
18 17 16 16 16 16 15 15 15 15 14 13 12 11 11 11 11 11 11 10 10 10 9 10 9 10 10 10 10 10 10 10 9 10 10 10 9 9 8 7 7 6 6
18 18 17 17 16 15 15 15 15 13 11 11 11 11 11 10 10 11 10 10 10 11 10 10 11 11 11 10 9 10 9 8 9 10 10 9 9 8 7 8 8 7 7
16 16 16 15 15 14 13 14 12 12 12 12 12 12 12 11 11 10 10 10 10 10 10 10 11 11 10 10 10 10 10 10 9 8 9 9 9 9 9 9 8 8 7
16 16 16 15 13 14 13 13 13 12 12 12 12 12 12 12 12 11 10 10 10 11 11 11 11 12 12 11 11 11 11 10 10 10 9 9 9 9 9 9 8 8 8
15 15 14 14 13 13 12 13 13 13 12 12 11 11 11 11 11 11 11 11 11 11 11 10 11 12 12 11 11 11 11 10 10 9 8 8 9 9 9 8 8 8 9
16 15 14 14 14 13 13 13 12 12 12 12 11 11 11 11 11 11 11 11 11 11 11 12 12 12 12 11 11 10 10 9 8 8 8 8 8 8 8 8 8 8 8
14 14 14 14 14 13 13 13 12 11 12 11 11 11 11 11 11 12 12 12 12 13 12 12 12 12 11 11 10 9 9 8 8 8 7 7 8 8 8 8 7 7 7
14 14 14 14 13 13 12 12 12 12 11 11 12 12 12 11 12 12 12 12 12 12 12 12 12 11 10 9 9 8 7 7 7 7 7 8 8 7 7 7 6 6 7
14 14 13 13 13 12 12 12 12 12 12 13 13 13 13 12 13 13 13 12 12 12 12 11 10 9 9 8 7 7 7 7 7 7 7 7 6 6 5 6 7 7 7
13 14 13 13 13 13 13 13 13 13 14 14 14 13 12 12 13 13 13 13 12 11 10 10 9 8 8 7 6 6 6 6 6 5 5 5 4 4 5 6 7 7 7
14 13 13 13 13 13 13 13 13 14 14 14 14 14 13 13 13 13 12 12 12 10 9 8 8 7 7 6 5 5 5 5 4 4 3 3 3 4 5 6 6 6 6
14 13 14 14 13 13 13 13 14 14 14 14 14 14 14 13 13 13 12 12 10 10 9 8 7 6 5 5 4 4 4 4 3 4 4 3 3 4 4 5 6 6 6
14 14 14 14 13 13 14 14 14 13 14 14 14 14 13 13 13 13 11 10 9 9 8 7 6 5 4 4 4 4 3 4 4 4 4 5 5 3 4 5 5 5 5
14 14 14 14 13 14 14 14 14 14 14 13 13 13 13 13 13 12 11 10 9 8 7 6 6 5 4 3 3 3 4 4 4 4 5 5 5 6 5 5 5 5 5
14 14 14 14 14 14 14 14 14 14 14 14 13 13 13 12 12 11 10 9 8 8 7 6 5 4 4 4 4 4 5 5 5 5 5 5 6 6 4 5 4 5 6

GFSGL_850_temp_291.txt.gz
Temp
21 20 20 20 19 19 19 19 18 18 17 17 17 17 16 16 15 15 15 15 14 13 13 13 13 12 13 14 14 15 15 15 15 16 16 16 15 15 15 15 15 16 18
21 20 19 20 19 19 19 18 18 18 17 17 17 16 16 16 14 14 13 13 13 13 13 12 13 12 13 12 12 13 13 13 13 14 15 15 16 16 15 15 15 16 17
20 20 20 20 19 19 19 18 18 18 17 17 16 16 17 17 15 13 14 12 12 12 12 11 11 12 13 14 11 11 12 12 13 13 14 16 15 15 14 15 15 15 16
21 20 21 21 19 19 19 18 17 17 17 17 18 17 17 16 16 13 13 13 12 11 12 11 13 13 13 14 11 13 13 12 13 13 14 14 14 13 12 12 12 13 13
22 21 21 19 19 18 18 19 18 18 18 18 17 17 16 14 16 15 14 12 11 11 12 11 13 14 14 14 13 13 13 12 11 12 13 13 12 11 11 10 11 11 11
19 18 19 19 18 17 17 18 18 18 18 17 17 17 16 16 16 15 13 14 13 13 11 11 11 13 12 12 12 12 12 11 11 10 10 10 10 9 9 9 10 9 9
20 20 19 19 18 17 16 17 17 18 18 17 17 17 16 16 15 15 14 11 11 12 12 11 11 11 12 12 9 9 10 10 10 10 8 8 9 9 10 8 9 8 10
20 18 16 17 16 16 16 18 17 18 18 17 16 16 15 15 14 14 14 11 12 12 11 10 11 11 11 11 10 9 10 10 9 9 9 9 8 9 9 9 9 10 11
19 18 16 16 16 16 17 18 18 17 16 16 15 15 15 14 14 13 12 11 10 10 11 11 11 11 11 10 10 9 9 10 9 9 9 10 10 9 9 8 9 10 10
16 17 16 16 15 18 18 17 16 16 15 14 14 14 14 14 14 13 12 13 11 12 12 11 11 11 11 11 11 11 9 9 10 10 10 11 11 10 10 9 9 9 9
16 16 16 15 17 17 17 17 16 15 14 13 13 14 13 13 13 12 12 12 12 12 12 13 12 11 11 11 11 11 10 10 10 10 11 12 12 12 11 10 8 8 9
16 16 16 16 15 16 16 16 15 14 14 14 13 12 10 12 12 12 12 12 11 11 10 11 11 11 11 11 11 11 11 10 9 11 12 11 11 11 11 10 9 9 8
16 16 16 15 15 15 15 15 15 14 12 11 11 13 12 10 11 11 11 11 11 11 10 11 11 12 12 11 12 12 11 11 11 12 11 11 11 11 10 10 10 10 10
16 16 15 15 15 15 14 15 13 13 13 13 13 14 14 13 12 12 12 11 11 11 11 11 11 12 13 13 13 13 13 12 12 12 12 12 11 11 11 11 10 11 11
16 16 15 14 14 14 14 14 15 14 14 14 14 14 14 14 13 12 12 11 11 11 11 12 11 13 13 13 13 13 13 12 12 12 11 11 10 10 11 11 11 10 11
16 15 15 15 14 15 14 14 14 14 14 14 14 14 13 13 12 12 12 11 11 12 12 12 12 13 13 13 13 13 12 12 11 10 10 10 10 10 10 10 10 10 11
16 16 15 15 16 15 15 14 13 14 14 13 13 12 12 12 12 11 11 12 12 12 12 12 13 13 13 13 13 12 11 11 10 10 9 9 9 9 10 10 10 10 10
15 14 15 16 16 16 15 15 15 13 12 12 12 12 12 12 11 11 12 12 12 13 13 13 13 12 13 12 11 11 10 9 9 9 9 9 9 9 9 9 9 9 9
15 15 16 16 16 15 15 15 14 14 14 14 13 13 13 12 12 12 12 13 12 13 13 13 12 13 12 11 10 9 8 8 8 8 8 9 9 9 9 9 8 7 7
15 15 16 15 14 15 14 14 15 14 14 14 15 15 13 13 13 13 13 13 12 12 13 12 12 11 10 9 9 8 8 8 8 8 7 7 7 7 7 7 7 7 7
15 15 15 15 15 15 15 15 15 15 15 15 15 15 15 14 14 14 14 13 13 12 12 12 11 10 10 9 8 8 7 7 7 7 6 6 5 6 6 6 7 7 8
15 14 15 16 16 15 15 15 15 15 16 16 16 15 14 14 14 13 13 13 13 13 12 11 10 9 9 8 7 7 6 6 6 5 4 4 4 4 4 5 6 7 7
16 16 16 16 16 15 15 16 16 16 16 16 16 15 14 14 14 14 14 13 13 12 11 10 9 9 8 7 6 6 6 6 4 4 4 4 4 3 4 5 6 7 7
16 16 16 16 16 15 15 15 16 15 15 16 16 16 15 14 14 13 13 12 12 11 10 10 9 8 7 6 6 6 6 5 4 5 5 5 5 3 3 4 5 6 7
16 16 16 16 15 15 16 16 16 16 16 15 15 15 14 13 13 13 12 12 12 11 10 9 8 8 7 6 6 5 5 4 5 5 5 5 5 5 4 4 5 6 6
16 16 16 16 16 16 16 16 16 16 16 15 15 14 14 13 13 12 12 12 11 10 9 9 8 7 6 6 6 5 5 5 5 5 5 5 6 4 4 5 5 6 6